Wind_Speed
11 9 11 11 12 11 11 11 10 11 10 10 9 7 6 5 5 4 4 3 2 6 8 6 6 6 7 9 14 17 19 19 18 12 8 13 12 12 9 10 13 9 8 11 10
11 10 11 11 12 11 10 11 10 11 11 10 8 7 5 4 5 5 4 4 4 4 6 6 5 4 6 7 11 15 20 20 17 12 15 11 11 10 10 7 10 10 6 7 7
10 10 10 11 11 10 10 10 10 10 10 9 8 6 5 4 4 4 3 3 3 3 4 6 5 5 6 4 5 9 14 12 15 14 15 15 10 9 13 8 8 3 6 4 8
8 9 9 10 9 9 8 8 9 8 8 8 7 6 5 4 2 1 3 3 2 3 3 7 7 8 7 5 4 6 6 9 11 11 12 13 13 12 12 11 9 8 8 6 7
6 7 8 9 7 8 7 7 7 7 7 6 6 5 5 4 6 5 5 5 3 2 4 7 8 9 11 9 7 6 9 10 9 7 9 15 16 18 17 15 11 10 10 7 8
6 7 10 8 8 8 8 7 7 7 7 6 6 5 5 5 4 3 5 5 5 4 8 10 11 11 11 10 7 10 12 11 8 9 14 14 15 17 22 21 14 9 9 5 10
8 8 11 9 9 9 8 8 7 7 6 6 5 5 5 3 2 2 5 6 6 7 11 13 11 10 12 11 11 10 12 9 3 8 9 12 5 13 13 10 13 9 7 6 11
10 10 10 9 10 10 9 9 9 9 8 7 5 4 5 3 4 4 1 5 7 8 12 13 12 9 7 9 11 12 7 6 9 9 14 13 13 16 10 8 10 10 9 10 14
10 11 10 10 10 10 9 9 9 9 9 8 7 5 4 2 2 4 3 2 7 9 12 12 10 8 9 8 2 4 7 11 9 11 15 16 17 14 11 7 6 8 11 13 12
11 11 10 11 10 11 9 10 10 9 10 8 7 5 4 3 3 4 2 1 4 6 12 11 9 6 4 3 5 10 12 14 14 15 17 17 19 16 12 9 11 12 10 10 10
12 11 11 11 10 10 10 10 11 9 8 7 6 3 3 3 2 3 3 1 2 3 6 6 1 7 6 5 9 11 11 12 16 12 17 20 23 22 17 13 13 14 19 19 19
12 11 10 10 11 10 10 9 8 8 4 5 4 4 8 5 3 2 4 1 1 2 5 9 8 6 6 8 10 7 8 12 14 16 17 18 17 13 9 16 19 21 25 26 27
11 10 10 10 11 10 9 8 8 7 5 3 2 3 4 2 2 5 2 2 2 4 7 6 3 4 6 9 5 7 9 8 11 17 17 16 5 18 20 9 11 16 23 23 23
11 10 10 11 10 8 6 5 4 4 4 6 3 3 3 10 5 2 3 1 3 5 4 6 2 2 1 6 5 6 9 9 11 15 10 15 5 18 21 21 12 10 5 11 4
12 11 11 12 10 6 5 2 1 2 3 4 6 6 8 6 5 4 3 1 4 4 3 4 4 4 8 5 8 5 9 10 13 9 2 14 4 17 17 25 24 21 21 14 10
14 12 13 11 10 7 6 4 2 2 2 3 5 4 7 6 6 6 4 3 1 4 6 3 3 6 12 9 7 9 11 12 6 5 2 13 9 12 18 20 20 21 17 15 14
15 13 12 12 9 8 7 6 4 1 6 4 3 6 4 2 2 2 5 5 2 5 7 4 8 7 16 9 8 6 9 6 5 5 5 15 4 8 19 19 19 16 16 11 12
16 13 12 13 10 9 8 10 3 4 6 6 3 7 2 1 2 3 3 5 7 5 8 5 4 5 14 12 1 3 7 3 2 2 7 9 1 1 11 16 13 15 18 14 10
16 14 13 11 10 10 11 10 3 7 6 6 6 6 4 1 2 3 3 4 4 5 3 4 0 8 7 12 4 5 10 6 3 4 3 6 8 14 5 13 13 10 14 16 15
15 14 13 12 12 11 13 8 6 8 7 5 6 5 4 3 2 6 5 3 3 4 7 5 7 3 8 5 7 9 11 7 6 1 3 5 10 11 15 13 13 14 11 10 10
15 14 14 13 13 13 15 9 11 9 6 3 5 4 3 4 5 5 6 4 1 3 4 1 7 10 10 9 11 11 10 5 4 2 4 1 1 6 14 16 13 14 12 10 12
17 16 16 15 14 16 16 15 14 11 6 3 1 2 3 1 1 3 5 6 2 2 3 5 5 8 11 11 8 5 2 6 4 4 4 4 11 9 15 20 20 18 17 15 16
18 18 17 17 15 15 17 18 14 13 9 6 4 4 4 3 1 5 7 6 7 7 4 8 5 5 3 3 2 3 9 14 16 12 13 5 7 13 34 26 24 24 22 21 19
20 19 22 20 18 16 17 21 17 12 10 9 10 9 10 11 8 6 10 7 7 9 11 13 8 10 10 10 14 17 16 15 9 8 11 17 24 20 29 28 26 23 23 23 20
24 22 20 17 20 16 17 15 18 17 14 11 10 9 8 4 5 7 9 11 12 11 10 8 9 11 12 15 17 13 14 16 18 21 19 16 17 17 20 23 20 20 21 22 23
28 24 21 16 20 19 17 16 14 16 15 14 10 8 5 3 4 6 7 8 5 7 11 11 8 11 15 15 17 22 25 25 27 16 16 14 12 16 15 12 14 18 20 22 22
31 27 20 19 16 18 18 18 17 16 14 13 10 8 8 9 10 11 12 12 14 17 15 16 13 13 9 11 14 18 19 13 14 14 9 8 5 5 8 13 16 15 14 15 17
Wind_Direction
277 286 286 290 289 291 297 300 302 301 299 296 298 302 303 305 315 315 325 318 273 233 236 228 234 239 236 230 221 222 230 237 244 268 298 327 342 352 344 239 279 262 306 318 338
278 283 286 293 290 295 299 300 303 304 302 300 302 307 305 303 307 310 313 300 289 248 230 221 226 222 210 204 203 214 230 239 248 277 300 306 318 340 337 326 282 243 315 299 8
282 288 295 298 296 301 302 303 304 303 302 300 304 304 304 299 302 299 308 311 290 263 222 211 205 166 173 167 203 222 242 251 253 275 293 297 296 324 330 329 343 291 284 318 41
284 294 304 296 301 306 308 310 310 310 310 307 311 308 298 288 267 276 102 28 295 241 221 202 202 189 179 184 191 256 237 250 255 263 291 285 298 308 304 316 324 271 231 277 358
290 304 302 294 311 311 313 314 315 321 323 328 330 324 299 280 256 249 257 312 268 212 193 189 194 198 198 211 251 266 247 247 258 279 292 291 292 300 281 292 296 247 228 285 312
294 297 291 297 309 307 310 318 325 327 329 344 353 348 331 308 289 300 257 250 243 209 172 185 198 204 208 224 258 264 256 247 252 284 311 320 314 289 276 281 274 245 243 318 297
290 289 283 298 298 297 306 311 312 313 319 333 347 354 1 14 27 300 260 249 234 205 195 205 212 210 222 231 256 285 290 263 2 14 2 356 308 308 322 283 275 258 265 316 288
280 279 283 293 291 295 299 299 302 304 308 314 322 328 341 8 31 26 299 229 205 203 208 223 228 237 257 259 281 293 318 4 344 11 9 4 348 7 313 308 279 260 262 271 291
276 276 281 285 286 294 294 296 300 301 302 302 308 315 304 299 348 38 48 221 212 204 218 237 252 265 277 295 303 49 6 9 21 17 7 351 341 344 353 286 274 320 292 285 286
273 276 281 281 286 288 299 302 303 302 298 297 293 277 246 261 325 320 7 188 196 217 230 242 260 285 317 21 20 355 356 5 2 358 352 340 328 324 338 340 299 296 288 276 269
270 273 276 281 289 293 309 309 311 309 300 297 268 242 239 183 324 332 326 147 204 205 218 220 12 86 73 18 344 336 338 339 7 354 346 343 324 323 313 311 299 285 281 277 273
268 269 273 282 291 306 311 312 317 324 338 312 306 239 252 241 258 17 342 301 202 173 171 129 105 73 22 12 355 338 341 353 0 356 348 339 331 14 339 285 280 275 277 277 276
260 261 272 280 292 305 308 315 333 346 14 18 32 208 272 255 213 287 259 300 258 195 183 164 135 25 8 12 14 349 339 337 338 342 338 340 59 12 18 325 292 280 275 281 281
256 261 269 280 287 294 298 325 344 355 80 56 50 59 81 122 80 339 189 175 124 157 189 186 247 309 66 16 23 32 345 335 331 333 350 18 308 6 11 26 27 12 302 284 267
257 258 267 274 279 283 272 279 39 98 60 78 63 97 115 114 98 64 134 156 149 184 210 212 217 295 307 333 341 346 336 319 322 337 352 20 1 9 16 20 22 34 41 31 13
259 260 268 268 272 265 248 219 180 138 86 99 87 104 115 96 96 71 93 150 174 283 273 306 336 40 353 282 285 313 333 319 326 19 9 2 9 23 24 16 16 16 21 43 47
261 265 266 267 267 250 227 195 160 138 140 134 108 125 109 64 103 68 51 58 23 12 33 22 105 60 15 355 229 315 332 340 7 8 241 334 352 49 41 26 8 7 8 7 12
262 266 262 265 252 236 205 181 143 148 148 161 194 189 153 47 229 259 323 6 2 315 336 11 115 47 1 10 140 345 5 26 287 269 290 326 310 291 3 21 11 15 16 334 328
260 262 262 257 243 225 194 178 151 153 158 151 149 156 163 238 232 233 234 0 317 341 266 348 8 338 36 37 41 47 19 11 297 310 318 323 354 350 312 335 351 4 358 360 360
254 257 253 241 230 213 189 170 145 161 165 160 165 150 134 137 190 161 137 72 59 19 251 270 297 332 358 346 339 14 355 345 344 324 299 304 329 6 345 1 14 17 7 0 348
247 245 240 231 218 205 191 171 163 175 174 175 154 139 136 96 115 144 158 148 128 64 82 253 271 289 321 333 336 338 341 326 292 273 173 296 195 37 9 354 343 340 342 330 319
237 231 228 218 207 205 190 179 185 187 178 172 149 235 286 284 215 168 172 209 228 356 286 267 282 288 318 324 332 341 43 17 16 318 300 251 265 250 319 321 317 322 325 323 321
224 222 221 214 208 202 196 189 189 205 205 214 227 250 272 308 255 221 218 243 255 274 287 300 298 317 272 264 251 270 309 313 306 295 271 240 260 292 304 306 307 311 315 317 316
213 211 216 213 210 200 197 202 199 200 213 234 248 263 274 279 270 235 235 257 273 292 299 303 289 277 273 281 279 290 300 303 307 285 289 278 294 299 301 304 310 312 311 312 311
207 209 212 217 208 202 197 200 205 212 218 227 252 262 275 279 286 260 256 268 284 289 301 305 279 272 269 283 292 291 291 291 292 296 277 294 289 289 289 294 300 302 308 310 307
206 208 205 210 200 200 195 189 191 201 209 213 232 258 268 300 303 313 317 323 319 308 319 314 296 289 286 285 286 291 287 290 293 269 255 279 270 281 294 302 304 300 299 303 299
205 205 206 204 200 199 199 187 185 194 204 221 236 251 278 299 303 302 308 314 313 317 312 306 305 307 289 298 288 289 298 286 280 283 309 301 287 287 293 291 291 299 311 315 315
Height
3177 3176 3176 3176 3176 3175 3174 3174 3173 3173 3173 3172 3171 3171 3171 3171 3171 3171 3171 3172 3171 3171 3172 3173 3174 3175 3176 3177 3179 3181 3183 3183 3183 3184 3185 3185 3184 3184 3183 3182 3182 3181 3179 3179 3177
3175 3175 3175 3175 3174 3174 3173 3172 3172 3172 3171 3171 3170 3170 3170 3170 3170 3170 3171 3170 3171 3171 3172 3173 3174 3174 3175 3176 3177 3178 3179 3181 3183 3183 3182 3182 3183 3183 3182 3180 3179 3179 3179 3178 3178
3174 3173 3173 3173 3173 3172 3171 3171 3170 3170 3170 3170 3169 3168 3169 3169 3170 3169 3169 3170 3170 3170 3171 3172 3173 3174 3175 3176 3177 3177 3178 3180 3181 3182 3181 3180 3180 3180 3181 3180 3178 3178 3179 3179 3178
3172 3171 3171 3172 3171 3171 3170 3169 3169 3169 3169 3168 3167 3167 3167 3168 3171 3169 3169 3170 3170 3170 3171 3172 3173 3175 3176 3176 3176 3176 3177 3178 3179 3180 3180 3179 3179 3178 3178 3179 3178 3177 3178 3178 3178
3170 3170 3171 3172 3170 3170 3169 3169 3169 3168 3168 3167 3167 3166 3166 3167 3168 3169 3169 3170 3170 3170 3170 3172 3173 3173 3174 3175 3175 3175 3176 3176 3177 3179 3179 3177 3176 3175 3174 3175 3175 3176 3177 3177 3177
3168 3169 3171 3170 3169 3169 3169 3168 3168 3168 3168 3166 3166 3166 3166 3167 3167 3168 3168 3169 3169 3170 3170 3170 3171 3173 3173 3174 3174 3174 3175 3176 3177 3178 3176 3175 3173 3172 3172 3170 3171 3173 3175 3175 3176
3168 3168 3170 3168 3169 3169 3168 3168 3168 3168 3167 3166 3166 3166 3166 3167 3166 3166 3167 3168 3169 3169 3169 3169 3171 3173 3173 3174 3174 3174 3174 3175 3177 3175 3173 3170 3171 3168 3166 3165 3167 3169 3171 3172 3173
3167 3168 3168 3166 3168 3167 3167 3167 3167 3167 3166 3166 3166 3166 3166 3166 3166 3166 3166 3167 3167 3168 3169 3169 3170 3172 3173 3174 3173 3174 3174 3174 3174 3173 3170 3169 3167 3166 3165 3164 3165 3166 3167 3170 3170
3165 3166 3166 3165 3167 3166 3167 3166 3166 3165 3165 3165 3166 3165 3166 3166 3166 3166 3165 3166 3167 3168 3169 3169 3171 3172 3173 3173 3173 3173 3173 3173 3172 3171 3170 3169 3167 3166 3164 3164 3164 3164 3165 3166 3168
3164 3164 3164 3164 3165 3165 3165 3165 3164 3164 3164 3164 3164 3167 3166 3167 3166 3166 3166 3166 3167 3167 3169 3170 3170 3171 3172 3172 3173 3173 3173 3172 3171 3171 3169 3168 3166 3165 3165 3163 3162 3163 3163 3163 3164
3162 3163 3162 3163 3163 3164 3164 3164 3165 3164 3162 3162 3163 3163 3164 3166 3167 3167 3166 3166 3167 3168 3168 3169 3171 3172 3173 3173 3173 3172 3172 3172 3171 3170 3168 3166 3164 3164 3162 3161 3160 3160 3160 3160 3161
3160 3161 3161 3161 3162 3163 3163 3161 3161 3162 3161 3160 3161 3162 3163 3165 3166 3167 3167 3168 3168 3168 3169 3172 3172 3173 3173 3173 3173 3172 3172 3171 3170 3169 3168 3165 3163 3162 3158 3157 3156 3156 3156 3155 3154
3158 3159 3159 3160 3161 3162 3161 3160 3159 3160 3160 3161 3161 3162 3163 3165 3166 3166 3168 3168 3168 3168 3169 3171 3173 3173 3173 3173 3172 3172 3171 3170 3170 3168 3167 3164 3161 3160 3157 3153 3152 3151 3150 3150 3148
3155 3157 3158 3159 3163 3161 3160 3160 3160 3159 3160 3163 3162 3162 3163 3164 3166 3166 3167 3170 3169 3170 3170 3172 3173 3173 3173 3173 3173 3172 3171 3169 3168 3167 3165 3164 3162 3159 3156 3153 3150 3149 3147 3146 3146
3153 3155 3156 3158 3159 3159 3160 3160 3160 3161 3162 3165 3163 3164 3163 3166 3168 3167 3168 3169 3170 3170 3172 3172 3172 3173 3173 3174 3173 3173 3171 3169 3167 3164 3164 3162 3162 3160 3157 3153 3151 3149 3147 3146 3145
3151 3153 3154 3156 3156 3158 3158 3159 3161 3164 3163 3165 3165 3165 3166 3166 3167 3168 3168 3170 3170 3171 3171 3172 3173 3174 3173 3172 3172 3172 3170 3168 3166 3164 3164 3162 3162 3161 3158 3156 3154 3152 3150 3149 3147
3149 3151 3152 3152 3155 3155 3157 3159 3163 3161 3164 3166 3165 3165 3166 3167 3168 3169 3169 3170 3171 3171 3171 3171 3172 3173 3172 3170 3170 3171 3170 3168 3169 3168 3167 3162 3162 3162 3160 3159 3157 3155 3152 3151 3150
3146 3148 3150 3151 3152 3153 3156 3160 3161 3161 3162 3163 3164 3165 3167 3167 3168 3169 3170 3171 3171 3171 3171 3172 3173 3173 3172 3171 3170 3170 3170 3171 3173 3173 3165 3161 3162 3162 3161 3160 3157 3156 3154 3152 3151
3143 3145 3147 3149 3149 3152 3156 3158 3160 3160 3162 3163 3164 3165 3167 3167 3169 3169 3171 3172 3172 3171 3173 3172 3172 3173 3173 3171 3171 3170 3171 3171 3170 3168 3166 3163 3162 3161 3159 3157 3156 3155 3154 3152 3151
3140 3142 3144 3146 3148 3151 3155 3157 3159 3159 3161 3162 3163 3166 3167 3168 3169 3169 3171 3172 3172 3171 3171 3172 3172 3171 3172 3172 3171 3171 3172 3171 3169 3170 3168 3163 3162 3161 3157 3155 3154 3153 3152 3151 3150
3138 3140 3141 3143 3146 3150 3152 3156 3158 3159 3160 3163 3163 3165 3167 3168 3169 3169 3171 3173 3172 3171 3171 3172 3172 3172 3171 3170 3170 3170 3169 3169 3169 3168 3168 3169 3162 3160 3157 3155 3153 3152 3151 3150 3148
3134 3137 3138 3141 3146 3147 3151 3154 3156 3158 3160 3162 3163 3165 3166 3168 3169 3169 3170 3171 3172 3171 3172 3171 3170 3170 3170 3169 3168 3168 3167 3167 3167 3168 3167 3166 3161 3157 3154 3153 3151 3150 3149 3148 3146
3130 3133 3135 3139 3142 3146 3149 3153 3155 3158 3160 3161 3163 3165 3166 3167 3170 3169 3169 3170 3170 3170 3170 3170 3169 3169 3169 3170 3168 3167 3167 3166 3165 3163 3163 3164 3160 3156 3150 3151 3149 3146 3145 3144 3143
3128 3130 3132 3136 3139 3143 3147 3151 3154 3156 3158 3160 3162 3164 3165 3165 3166 3168 3168 3168 3168 3168 3168 3168 3168 3168 3168 3167 3166 3166 3166 3163 3162 3160 3157 3157 3154 3154 3147 3147 3145 3143 3140 3138 3137
3123 3126 3129 3132 3137 3141 3145 3149 3151 3154 3156 3158 3160 3162 3163 3164 3164 3165 3167 3167 3166 3166 3165 3166 3165 3164 3164 3163 3160 3160 3161 3159 3158 3156 3153 3152 3150 3147 3146 3143 3142 3140 3137 3135 3132
3120 3124 3128 3131 3134 3139 3142 3146 3149 3152 3155 3156 3159 3161 3162 3163 3164 3164 3164 3164 3164 3164 3163 3163 3162 3161 3161 3160 3159 3156 3155 3154 3151 3148 3148 3147 3146 3144 3142 3141 3141 3138 3136 3133 3130
3116 3122 3127 3130 3133 3137 3141 3144 3147 3149 3153 3155 3158 3159 3161 3162 3162 3162 3162 3162 3162 3161 3159 3159 3158 3157 3155 3155 3154 3152 3149 3147 3146 3145 3145 3144 3144 3142 3141 3140 3139 3136 3134 3131 3128